Date String (YYYY-MM-DD hh:mm:ss) UTC,Instrument flags,Ambient pressure (hPa),Sample flow (lpm),Bypass flow (lpm),Sample temperature (°C),Ambient temperature (°C),ASC tube jacket temperature (°C),LED temperature (°C),Box temperature (°C),Sample RH (%),Span deviation,Mass concentration (μg/m³),Mass concentration (μg/m³),Mass concentration (μg/m³)
DateTimeUTC,F1_M11,P_M11,Q1_M11,Q2_M11,T1_M11,T2_M11,T3_M11,T4_M11,T5_M11,U1_M11,ZSPAN_M11,X0_M11,X2_M11,X1_M11
2023-04-06 04:00:00,,0832.8,5.00,0.00,22.9,21.5,00.0,31.2,24.4,12.8,0000.0,0008.05,0003.83,0003.42
2023-04-06 04:01:00,,0832.7,4.99,0.00,22.9,21.4,00.0,31.2,24.4,12.8,0000.0,0008.79,0003.82,0003.40
2023-04-06 04:02:00,,0832.8,4.99,0.00,22.8,21.4,00.0,31.2,24.4,12.9,0000.0,0008.80,0003.78,0003.36
2023-04-06 04:03:00,,0832.8,5.00,0.00,22.8,21.4,00.0,31.2,24.4,13.0,0000.0,0008.32,0003.74,0003.32
2023-04-06 04:04:00,,0832.8,5.00,0.00,22.8,21.3,00.0,31.2,24.4,13.1,0000.0,0008.19,0003.70,0003.29
2023-04-06 04:05:00,,0832.8,5.01,0.00,22.8,21.3,00.0,31.2,24.4,13.1,0000.0,0008.18,0003.66,0003.26
2023-04-06 04:06:00,,0832.9,5.01,0.00,22.8,21.3,00.0,31.1,24.4,13.3,0000.0,0008.15,0003.63,0003.23
2023-04-06 04:07:00,,0832.7,4.99,0.00,22.8,21.2,00.0,31.1,24.4,13.3,0000.0,0007.92,0003.60,0003.21
2023-04-06 04:08:00,,0832.9,5.00,0.00,22.8,21.2,00.0,31.1,24.3,13.3,0000.0,0007.46,0003.55,0003.19
2023-04-06 04:09:00,,0833.3,5.00,0.00,22.8,21.2,00.0,31.1,24.3,13.4,0000.0,0007.77,0003.53,0003.18
2023-04-06 04:10:00,,0833.4,5.01,0.00,22.8,21.2,00.0,31.1,24.3,13.4,0000.0,0008.44,0003.51,0003.17
2023-04-06 04:11:00,,0833.3,4.99,0.00,22.7,21.1,00.0,31.1,24.2,13.3,0000.0,0008.10,0003.50,0003.16
2023-04-06 04:12:00,,0833.0,5.00,0.00,22.7,21.0,00.0,31.1,24.2,13.3,0000.0,0007.30,0003.46,0003.14
2023-04-06 04:13:00,,0833.0,4.99,0.00,22.7,20.9,00.0,31.1,24.1,13.3,0000.0,0007.07,0003.45,0003.15
2023-04-06 04:14:00,,0833.0,5.00,0.00,22.7,20.8,00.0,31.1,24.1,13.3,0000.0,0007.64,0003.46,0003.15
2023-04-06 04:15:00,,0833.0,5.00,0.00,22.6,20.7,00.0,31.0,24.1,13.3,0000.0,0008.04,0003.48,0003.15
2023-04-06 04:16:00,,0833.0,5.02,0.00,22.7,21.3,00.0,31.0,24.4,13.2,0000.0,0008.11,0003.51,0003.17
2023-04-06 04:17:00,,0833.2,5.00,0.00,22.8,22.3,00.0,30.9,24.8,13.2,0000.0,0008.10,0003.51,0003.18
2023-04-06 04:18:00,,0833.0,5.00,0.00,22.9,23.1,00.0,31.0,24.9,13.1,0000.0,0008.06,0003.49,0003.18
2023-04-06 04:19:00,,0833.0,5.00,0.00,23.0,23.0,00.0,31.1,24.8,13.1,0000.0,0008.13,0003.52,0003.19
2023-04-06 04:20:00,,0833.0,5.00,0.00,23.0,22.8,00.0,31.1,24.7,13.1,0000.0,0008.12,0003.56,0003.21
2023-04-06 04:21:00,,0833.3,4.98,0.00,23.0,22.6,00.0,31.2,24.6,13.1,0000.0,0007.04,0003.57,0003.22
2023-04-06 04:22:00,,0833.5,5.00,0.00,23.0,22.3,00.0,31.2,24.6,13.1,0000.0,0007.50,0003.57,0003.23
2023-04-06 04:23:00,,0833.1,5.01,0.00,22.9,22.1,00.0,31.2,24.6,13.1,0000.0,0007.54,0003.58,0003.24
2023-04-06 04:24:00,,0833.4,4.99,0.00,22.9,22.0,00.0,31.2,24.5,13.1,0000.0,0007.60,0003.60,0003.25
2023-04-06 04:25:00,,0833.2,5.00,0.00,22.9,21.9,00.0,31.2,24.5,13.1,0000.0,0007.36,0003.62,0003.26
2023-04-06 04:26:00,,0832.9,4.99,0.00,22.9,21.7,00.0,31.2,24.5,13.1,0000.0,0006.64,0003.60,0003.27
2023-04-06 04:27:00,,0832.9,5.00,0.00,22.9,21.7,00.0,31.2,24.5,13.1,0000.0,0006.86,0003.59,0003.27
2023-04-06 04:28:00,,0832.9,5.01,0.00,22.9,21.6,00.0,31.2,24.5,13.2,0000.0,0007.25,0003.59,0003.27
2023-04-06 04:29:00,,0833.2,5.00,0.00,22.9,21.4,00.0,31.2,24.4,13.3,0000.0,0008.05,0003.62,0003.28
2023-04-06 04:30:00,,0833.4,5.00,0.00,22.9,21.3,00.0,31.2,24.4,13.3,0000.0,0008.36,0003.63,0003.28
2023-04-06 04:31:00,,0833.4,5.00,0.00,22.9,21.3,00.0,31.2,24.4,13.3,0000.0,0008.51,0003.62,0003.27
2023-04-06 04:32:00,,0833.3,5.01,0.00,22.9,21.3,00.0,31.2,24.4,13.4,0000.0,0008.43,0003.58,0003.27
2023-04-06 04:33:00,,0833.4,5.00,0.00,22.8,21.2,00.0,31.2,24.3,13.3,0000.0,0008.20,0003.57,0003.26
2023-04-06 04:34:00,,0833.2,5.00,0.00,22.8,21.2,00.0,31.2,24.3,13.1,0000.0,0008.18,0003.57,0003.26
2023-04-06 04:35:00,,0833.1,5.00,0.00,22.8,21.2,00.0,31.2,24.3,13.2,0000.0,0008.25,0003.56,0003.25
2023-04-06 04:36:00,,0833.0,5.00,0.00,22.8,21.1,00.0,31.2,24.3,13.3,0000.0,0008.31,0003.55,0003.25
2023-04-06 04:37:00,,0833.0,5.00,0.00,22.7,21.1,00.0,31.1,24.3,13.4,0000.0,0008.30,0003.57,0003.25
2023-04-06 04:38:00,,0833.0,4.99,0.00,22.7,21.1,00.0,31.1,24.3,13.5,0000.0,0007.97,0003.58,0003.25
2023-04-06 04:39:00,,0833.2,5.00,0.00,22.7,21.1,00.0,31.1,24.2,13.5,0000.0,0007.73,0003.58,0003.26
2023-04-06 04:40:00,,0833.3,4.99,0.00,22.7,21.1,00.0,31.1,24.2,13.5,0000.0,0006.70,0003.57,0003.25
2023-04-06 04:41:00,,0833.1,5.01,0.00,22.8,21.5,00.0,31.0,24.5,13.5,0000.0,0006.19,0003.56,0003.26
2023-04-06 04:42:00,,0833.3,5.01,0.00,22.9,22.4,00.0,31.0,24.8,13.5,0000.0,0007.39,0003.56,0003.26
2023-04-06 04:43:00,,0833.2,5.00,0.00,23.0,23.1,00.0,31.0,25.0,13.4,0000.0,0007.40,0003.55,0003.25
2023-04-06 04:44:00,,0833.1,4.98,0.00,23.0,23.0,00.0,31.1,24.8,13.4,0000.0,0007.44,0003.57,0003.25
2023-04-06 04:45:00,,0833.1,5.00,0.00,23.0,22.8,00.0,31.2,24.8,13.4,0000.0,0007.83,0003.57,0003.25
2023-04-06 04:46:00,,0833.1,5.00,0.00,23.0,22.6,00.0,31.2,24.7,13.4,0000.0,0008.48,0003.58,0003.26
2023-04-06 04:47:00,,0833.2,5.00,0.00,23.0,22.4,00.0,31.2,24.6,13.4,0000.0,0008.48,0003.59,0003.27
2023-04-06 04:48:00,,0833.1,5.00,0.00,23.0,22.2,00.0,31.2,24.6,13.4,0000.0,0008.89,0003.61,0003.27
2023-04-06 04:49:00,,0833.1,4.99,0.00,23.0,22.0,00.0,31.3,24.6,13.4,0000.0,0009.33,0003.61,0003.28
2023-04-06 04:50:00,,0833.0,5.01,0.00,23.0,21.9,00.0,31.3,24.6,13.4,0000.0,0009.71,0003.64,0003.29
2023-04-06 04:51:00,,0833.1,5.01,0.00,22.9,21.8,00.0,31.3,24.6,13.4,0000.0,0010.24,0003.68,0003.31
2023-04-06 04:52:00,,0833.1,5.00,0.00,22.9,21.7,00.0,31.2,24.5,13.4,0000.0,0011.31,0003.71,0003.32
2023-04-06 04:53:00,,0833.1,5.00,0.00,22.9,21.6,00.0,31.2,24.5,13.4,0000.0,0010.52,0003.73,0003.34
2023-04-06 04:54:00,,0833.1,5.00,0.00,22.9,21.5,00.0,31.2,24.5,13.4,0000.0,0010.74,0003.77,0003.37
2023-04-06 04:55:00,,0833.1,4.99,0.00,22.9,21.5,00.0,31.2,24.4,13.3,0000.0,0010.76,0003.78,0003.37
2023-04-06 04:56:00,,0833.1,5.01,0.00,22.9,21.4,00.0,31.2,24.5,13.2,0000.0,0010.33,0003.78,0003.39
2023-04-06 04:57:00,,0833.1,5.01,0.00,22.9,21.3,00.0,31.2,24.4,13.2,0000.0,0009.53,0003.78,0003.40
2023-04-06 04:58:00,,0833.1,4.99,0.00,22.9,21.3,00.0,31.2,24.4,13.1,0000.0,0009.44,0003.80,0003.40
2023-04-06 04:59:00,,0833.2,4.99,0.00,22.8,21.2,00.0,31.2,24.4,13.1,0000.0,0009.92,0003.78,0003.40
